Overview Statistics Trail Chart Weather Telemetry Raw packets
 

This is the latest recevied weather packets stored in our database for station/object HI3RRR-13. If no packets are shown the sender has not sent any weather packets the latest 10 day(s).

<< 39 40 41 42 43 44 45 >>
Time Temp. Humidity Pressure Rain* Wind** Luminosity Snow
1788048802 29.44° C 74% 1015 hPa 0 mm - - -
1788048201 29.44° C 74% 1015 hPa 0 mm - - -
1788047601 29.44° C 74% 1015 hPa 0 mm - - -
1788047000 29.44° C 74% 1015 hPa 0 mm - - -
1788046400 29.44° C 74% 1015 hPa 0 mm - - -
1788045799 29.44° C 74% 1014 hPa 0 mm - - -
1788045198 30° C 73% 1014 hPa 0 mm - - -
1788044598 30.56° C 70% 1014 hPa 0 mm - - -
1788043997 30.56° C 70% 1014 hPa 0 mm - - -
1788043397 30.56° C 70% 1014 hPa 0 mm - - -
1788042796 30.56° C 70% 1014 hPa 0 mm - - -
1788042195 30.56° C 69% 1013 hPa 0 mm - - -
1788041595 31.11° C 66% 1013 hPa 0 mm - - -
1788040994 32.78° C 58% 1013 hPa 0 mm - - -
1788040394 32.78° C 58% 1013 hPa 0 mm - - -
1788039793 32.78° C 58% 1013 hPa 0 mm - - -
1788039204 32.78° C 58% 1013 hPa 0 mm - - -
1788038592 32.78° C 57% 1013 hPa 0 mm - - -
1788037991 32.78° C 55% 1013 hPa 0 mm - - -
1788037391 34.44° C 49% 1013 hPa 0 mm - - -
1788036790 34.44° C 49% 1013 hPa 0 mm - - -
1788036189 34.44° C 49% 1013 hPa 0 mm - - -
1788035589 34.44° C 49% 1013 hPa 0 mm - - -
1788034988 34.44° C 49% 1013 hPa 0 mm - - -
1788034388 35° C 48% 1013 hPa 0 mm - - -

* Rain latest hour (hover to see other rain measurements)
** Current wind speed in m/s (hover to see current wind gust speed)